^^

..:: Storico WU ::..




Lo storico viene creato da WUnderground con i dati che la stazione Meteomincio invia al loro server. L' aggiornamento viene fatto ogni 5 minuti circa, tuttavia possono esserci intervalli pił ampi a causa di errori, interruzioni di servizio o problemi nell' invio tramite FTP.


Storico stazione MeteoMincio
Giorno Sommario per Settembre 12, 2022 Unità:  Inglese    Metrico   Entrambi
Giorno Settimana Mese Anno
  Max: Min: Media:
Temperatura: 82.4 °F 59 °F 70.9 °F
Dew Point: 68 °F 55.4 °F 61.7 °F
Umidità: 89% 54% 74%
Velocità vento: 6.8mph 0mph 3.2mph
Raffica: 9.3mph - -
Direzione- - ENE
Pressione: 30 in 29.9 in -
Precipitazioni: 0 in    
 
 
Tabulato Dati per Settembre 12, 2022
Ora Temperatura Dew Point Pressione Direzione Velocità vento Raffica Umidità Intensità pioggia (oraria) Info solare Situazione
00:04 66.2 °F 62.6 °F 30 in NE 4.3 mph 5 mph 85% 0 in 0.00 W/m2 unknown
00:09 66.2 °F 62.6 °F 30 in NE 3.7 mph 5 mph 85% 0 in 0.00 W/m2 unknown
00:14 66.2 °F 60.8 °F 30 in NE 4.3 mph 5 mph 85% 0 in 0.00 W/m2 unknown
00:19 66.2 °F 60.8 °F 30 in NE 3.7 mph 5 mph 85% 0 in 0.00 W/m2 unknown
00:24 66.2 °F 60.8 °F 30 in NE 4.3 mph 5 mph 84% 0 in 0.00 W/m2 unknown
00:29 66.2 °F 60.8 °F 30 in NE 3.7 mph 5 mph 84% 0 in 0.00 W/m2 unknown
00:34 66.2 °F 60.8 °F 30 in ENE 2.5 mph 3.7 mph 83% 0 in 0.00 W/m2 unknown
00:39 66.2 °F 60.8 °F 30 in ENE 2.5 mph 3.7 mph 85% 0 in 0.00 W/m2 unknown
00:44 64.4 °F 60.8 °F 30 in ENE 2.5 mph 3.7 mph 86% 0 in 0.00 W/m2 unknown
00:49 64.4 °F 60.8 °F 30 in ENE 3.1 mph 5 mph 86% 0 in 0.00 W/m2 unknown
00:54 64.4 °F 60.8 °F 30 in East 3.1 mph 5 mph 86% 0 in 0.00 W/m2 unknown
00:59 64.4 °F 59 °F 30 in ENE 3.7 mph 6.2 mph 86% 0 in 0.00 W/m2 unknown
01:04 64.4 °F 59 °F 30 in ENE 3.1 mph 6.2 mph 86% 0 in 0.00 W/m2 unknown
01:09 64.4 °F 59 °F 30 in East 2.5 mph 3.7 mph 86% 0 in 0.00 W/m2 unknown
01:14 64.4 °F 59 °F 30 in ENE 2.5 mph 3.7 mph 85% 0 in 0.00 W/m2 unknown
01:19 64.4 °F 59 °F 30 in ENE 2.5 mph 3.7 mph 85% 0 in 0.00 W/m2 unknown
01:24 64.4 °F 59 °F 30 in ENE 2.5 mph 3.7 mph 86% 0 in 0.00 W/m2 unknown
01:29 64.4 °F 59 °F 30 in ENE 3.1 mph 3.7 mph 86% 0 in 0.00 W/m2 unknown
01:34 64.4 °F 59 °F 30 in ENE 3.1 mph 5 mph 85% 0 in 0.00 W/m2 unknown
01:39 64.4 °F 59 °F 30 in ENE 3.7 mph 5 mph 84% 0 in 0.00 W/m2 unknown
01:44 64.4 °F 59 °F 30 in NE 3.1 mph 5 mph 83% 0 in 0.00 W/m2 unknown
01:49 64.4 °F 59 °F 30 in ENE 3.7 mph 5 mph 82% 0 in 0.00 W/m2 unknown
01:54 64.4 °F 59 °F 30 in ENE 4.3 mph 6.8 mph 81% 0 in 0.00 W/m2 unknown
01:59 64.4 °F 57.2 °F 30 in ENE 4.3 mph 6.8 mph 80% 0 in 0.00 W/m2 unknown
02:04 64.4 °F 57.2 °F 30 in NE 3.7 mph 5 mph 80% 0 in 0.00 W/m2 unknown
02:09 64.4 °F 57.2 °F 30 in NE 3.7 mph 6.2 mph 80% 0 in 0.00 W/m2 unknown
02:14 64.4 °F 57.2 °F 30 in NE 3.1 mph 6.2 mph 80% 0 in 0.00 W/m2 unknown
02:19 64.4 °F 57.2 °F 30 in ENE 3.1 mph 3.7 mph 80% 0 in 0.00 W/m2 unknown
02:24 64.4 °F 57.2 °F 30 in NE 3.1 mph 3.7 mph 81% 0 in 0.00 W/m2 unknown
02:29 62.6 °F 57.2 °F 30 in NE 3.1 mph 3.7 mph 81% 0 in 0.00 W/m2 unknown
02:34 62.6 °F 57.2 °F 30 in NE 3.7 mph 3.7 mph 81% 0 in 0.00 W/m2 unknown
02:39 62.6 °F 57.2 °F 30 in NE 3.1 mph 3.7 mph 81% 0 in 0.00 W/m2 unknown
02:44 62.6 °F 57.2 °F 30 in NE 3.7 mph 5 mph 80% 0 in 0.00 W/m2 unknown
02:49 62.6 °F 57.2 °F 30 in NE 3.7 mph 5 mph 81% 0 in 0.00 W/m2 unknown
02:54 62.6 °F 57.2 °F 30 in ENE 3.1 mph 5 mph 81% 0 in 0.00 W/m2 unknown
02:59 62.6 °F 57.2 °F 30 in ENE 3.7 mph 5 mph 82% 0 in 0.00 W/m2 unknown
03:04 62.6 °F 57.2 °F 30 in ENE 3.1 mph 5 mph 82% 0 in 0.00 W/m2 unknown
03:09 62.6 °F 57.2 °F 30 in ENE 3.1 mph 3.7 mph 83% 0 in 0.00 W/m2 unknown
03:14 62.6 °F 57.2 °F 30 in NE 1.9 mph 3.7 mph 83% 0 in 0.00 W/m2 unknown
03:19 62.6 °F 57.2 °F 30 in ENE 2.5 mph 3.7 mph 84% 0 in 0.00 W/m2 unknown
03:24 62.6 °F 57.2 °F 30 in ENE 2.5 mph 3.7 mph 85% 0 in 0.00 W/m2 unknown
03:29 60.8 °F 57.2 °F 30 in ENE 2.5 mph 3.7 mph 85% 0 in 0.00 W/m2 unknown
03:34 60.8 °F 57.2 °F 30 in ENE 2.5 mph 3.7 mph 85% 0 in 0.00 W/m2 unknown
03:39 60.8 °F 57.2 °F 30 in ENE 2.5 mph 3.7 mph 85% 0 in 0.00 W/m2 unknown
03:44 60.8 °F 57.2 °F 30 in ENE 3.1 mph 3.7 mph 86% 0 in 0.00 W/m2 unknown
03:49 60.8 °F 57.2 °F 30 in ENE 3.7 mph 3.7 mph 86% 0 in 0.00 W/m2 unknown
03:54 60.8 °F 57.2 °F 30 in ENE 3.7 mph 3.7 mph 86% 0 in 0.00 W/m2 unknown
03:59 62.6 °F 57.2 °F 30 in ENE 1.9 mph 3.7 mph 86% 0 in 0.00 W/m2 unknown
04:04 62.6 °F 57.2 °F 30 in ENE 2.5 mph 3.7 mph 86% 0 in 0.00 W/m2 unknown
04:09 60.8 °F 57.2 °F 30 in ENE 1.9 mph 3.7 mph 87% 0 in 0.00 W/m2 unknown
04:14 60.8 °F 57.2 °F 30 in ENE 2.5 mph 3.7 mph 87% 0 in 0.00 W/m2 unknown
04:19 60.8 °F 57.2 °F 30 in NE 2.5 mph 3.7 mph 87% 0 in 0.00 W/m2 unknown
04:24 60.8 °F 57.2 °F 30 in ENE 2.5 mph 3.7 mph 87% 0 in 0.00 W/m2 unknown
04:29 60.8 °F 57.2 °F 30 in ENE 2.5 mph 3.7 mph 87% 0 in 0.00 W/m2 unknown
04:34 60.8 °F 57.2 °F 30 in ENE 2.5 mph 3.7 mph 88% 0 in 0.00 W/m2 unknown
04:39 60.8 °F 57.2 °F 30 in ENE 2.5 mph 3.7 mph 88% 0 in 0.00 W/m2 unknown
04:44 60.8 °F 57.2 °F 30 in ENE 3.1 mph 3.7 mph 88% 0 in 0.00 W/m2 unknown
04:49 60.8 °F 57.2 °F 30 in ENE 2.5 mph 3.7 mph 88% 0 in 0.00 W/m2 unknown
04:54 60.8 °F 57.2 °F 30 in ENE 2.5 mph 3.7 mph 88% 0 in 0.00 W/m2 unknown
04:59 60.8 °F 57.2 °F 30 in ENE 1.9 mph 3.7 mph 88% 0 in 0.00 W/m2 unknown
05:04 60.8 °F 57.2 °F 30 in ENE 1.2 mph 3.7 mph 87% 0 in 0.00 W/m2 unknown
05:09 60.8 °F 57.2 °F 30 in ENE 1.9 mph 3.1 mph 87% 0 in 0.00 W/m2 unknown
05:14 60.8 °F 57.2 °F 30 in ENE 1.9 mph 3.7 mph 87% 0 in 0.00 W/m2 unknown
05:19 60.8 °F 57.2 °F 30 in ENE 1.9 mph 3.7 mph 88% 0 in 0.00 W/m2 unknown
05:24 60.8 °F 57.2 °F 30 in ENE 2.5 mph 3.7 mph 88% 0 in 0.00 W/m2 unknown
05:29 60.8 °F 57.2 °F 30 in ENE 2.5 mph 3.7 mph 88% 0 in 0.00 W/m2 unknown
05:34 59 °F 55.4 °F 30 in ENE 1.2 mph 3.1 mph 88% 0 in 0.00 W/m2 unknown
05:39 60.8 °F 57.2 °F 30 in ENE 1.9 mph 2.5 mph 88% 0 in 0.00 W/m2 unknown
05:44 60.8 °F 55.4 °F 30 in ENE 1.2 mph 2.5 mph 87% 0 in 0.00 W/m2 unknown
05:49 60.8 °F 55.4 °F 30 in ENE 2.5 mph 3.7 mph 87% 0 in 0.00 W/m2 unknown
05:54 59 °F 55.4 °F 30 in ENE 2.5 mph 3.7 mph 87% 0 in 0.00 W/m2 unknown
05:59 59 °F 55.4 °F 30 in NE 3.1 mph 3.7 mph 87% 0 in 0.00 W/m2 unknown
06:04 59 °F 55.4 °F 30 in ENE 3.1 mph 3.7 mph 87% 0 in 0.00 W/m2 unknown
06:09 59 °F 55.4 °F 30 in ENE 3.1 mph 3.7 mph 87% 0 in 0.00 W/m2 unknown
06:14 59 °F 55.4 °F 30 in ENE 3.1 mph 3.7 mph 87% 0 in 0.00 W/m2 unknown
06:19 59 °F 55.4 °F 30 in ENE 2.5 mph 3.7 mph 87% 0 in 0.00 W/m2 unknown
06:24 59 °F 55.4 °F 30 in ENE 3.1 mph 3.7 mph 88% 0 in 0.00 W/m2 unknown
06:29 59 °F 55.4 °F 30 in ENE 3.1 mph 3.7 mph 88% 0 in 0.00 W/m2 unknown
06:34 59 °F 55.4 °F 30 in ENE 3.1 mph 3.7 mph 88% 0 in 0.00 W/m2 unknown
06:39 59 °F 55.4 °F 30 in ENE 2.5 mph 3.7 mph 88% 0 in 0.00 W/m2 unknown
06:44 59 °F 55.4 °F 30 in ENE 2.5 mph 3.7 mph 88% 0 in 0.00 W/m2 unknown
06:49 59 °F 55.4 °F 30 in ENE 2.5 mph 3.7 mph 88% 0 in 0.00 W/m2 unknown
06:54 59 °F 55.4 °F 30 in ENE 2.5 mph 3.7 mph 88% 0 in 0.00 W/m2 unknown
06:59 59 °F 55.4 °F 30 in ENE 3.1 mph 3.7 mph 88% 0 in 7.00 W/m2 unknown
07:04 59 °F 55.4 °F 30 in ENE 3.1 mph 3.7 mph 88% 0 in 9.00 W/m2 unknown
07:09 59 °F 55.4 °F 30 in ENE 2.5 mph 3.7 mph 88% 0 in 11.00 W/m2 unknown
07:14 59 °F 55.4 °F 30 in ENE 2.5 mph 3.7 mph 89% 0 in 14.00 W/m2 unknown
07:19 59 °F 57.2 °F 30 in ENE 1.9 mph 3.7 mph 89% 0 in 16.00 W/m2 unknown
07:24 60.8 °F 57.2 °F 30 in ENE 0.6 mph 3.1 mph 89% 0 in 19.00 W/m2 unknown
07:29 60.8 °F 57.2 °F 30 in Calm   1.2 mph 88% 0 in 23.00 W/m2 unknown
07:34 60.8 °F 57.2 °F 30 in ENE 0.6 mph 1.2 mph 87% 0 in 28.00 W/m2 unknown
07:39 60.8 °F 57.2 °F 30 in ENE 0.6 mph 1.2 mph 87% 0 in 40.00 W/m2 unknown
07:44 60.8 °F 57.2 °F 30 in NE 1.2 mph 2.5 mph 87% 0 in 47.00 W/m2 unknown
07:49 62.6 °F 57.2 °F 30 in NNE 1.9 mph 3.7 mph 86% 0 in 56.00 W/m2 unknown
07:54 62.6 °F 57.2 °F 30 in NNE 1.2 mph 3.1 mph 86% 0 in 65.00 W/m2 unknown
07:59 62.6 °F 57.2 °F 30 in NNE 1.2 mph 2.5 mph 85% 0 in 79.00 W/m2 unknown
08:04 62.6 °F 57.2 °F 30 in NE 1.9 mph 3.7 mph 84% 0 in 95.00 W/m2 unknown
08:09 62.6 °F 57.2 °F 30 in NE 3.1 mph 3.7 mph 83% 0 in 111.00 W/m2 unknown
08:14 64.4 °F 59 °F 30 in NE 2.5 mph 3.7 mph 83% 0 in 123.00 W/m2 unknown
08:19 64.4 °F 59 °F 30 in ENE 2.5 mph 3.7 mph 83% 0 in 141.00 W/m2 unknown
08:24 64.4 °F 59 °F 30 in East 2.5 mph 3.7 mph 83% 0 in 155.00 W/m2 unknown
08:29 64.4 °F 59 °F 30 in ESE 1.9 mph 3.1 mph 83% 0 in 172.00 W/m2 unknown
08:34 64.4 °F 59 °F 30 in ESE 1.2 mph 2.5 mph 82% 0 in 186.00 W/m2 unknown
08:39 64.4 °F 59 °F 30 in South 1.2 mph 2.5 mph 82% 0 in 200.00 W/m2 unknown
08:44 64.4 °F 59 °F 30 in SE 1.2 mph 2.5 mph 82% 0 in 213.00 W/m2 unknown
08:49 66.2 °F 59 °F 30 in SE 1.9 mph 3.7 mph 80% 0 in 227.00 W/m2 unknown
08:54 66.2 °F 59 °F 30 in ESE 1.9 mph 3.7 mph 80% 0 in 243.00 W/m2 unknown
08:59 66.2 °F 60.8 °F 30 in ESE 0.6 mph 3.1 mph 80% 0 in 257.00 W/m2 unknown
09:04 66.2 °F 60.8 °F 30 in ESE 1.9 mph 2.5 mph 80% 0 in 271.00 W/m2 unknown
09:09 68 °F 60.8 °F 30 in ENE 2.5 mph 3.7 mph 79% 0 in 283.00 W/m2 unknown
09:14 68 °F 60.8 °F 30 in ENE 1.9 mph 3.7 mph 79% 0 in 297.00 W/m2 unknown
09:19 68 °F 60.8 °F 30 in ENE 4.3 mph 6.2 mph 80% 0 in 311.00 W/m2 unknown
09:24 68 °F 60.8 °F 30 in East 5 mph 6.8 mph 78% 0 in 325.00 W/m2 unknown
09:29 68 °F 60.8 °F 30 in East 5 mph 6.8 mph 79% 0 in 341.00 W/m2 unknown
09:34 69.8 °F 62.6 °F 30 in East 3.1 mph 6.8 mph 79% 0 in 341.00 W/m2 unknown
09:39 69.8 °F 62.6 °F 30 in ENE 3.1 mph 5 mph 79% 0 in 285.00 W/m2 unknown
09:44 69.8 °F 62.6 °F 30 in East 3.1 mph 5 mph 79% 0 in 381.00 W/m2 unknown
09:49 69.8 °F 62.6 °F 30 in ESE 5 mph 6.8 mph 78% 0 in 392.00 W/m2 unknown
09:54 71.6 °F 64.4 °F 30 in East 5 mph 6.8 mph 79% 0 in 406.00 W/m2 unknown
09:59 71.6 °F 64.4 °F 30 in ESE 3.7 mph 6.8 mph 79% 0 in 422.00 W/m2 unknown
10:04 71.6 °F 64.4 °F 30 in East 3.1 mph 6.2 mph 77% 0 in 436.00 W/m2 unknown
10:09 71.6 °F 64.4 °F 30 in NE 4.3 mph 6.8 mph 77% 0 in 448.00 W/m2 unknown
10:14 71.6 °F 64.4 °F 30 in East 5 mph 6.8 mph 77% 0 in 462.00 W/m2 unknown
10:19 71.6 °F 64.4 °F 30 in ENE 3.1 mph 6.8 mph 77% 0 in 473.00 W/m2 unknown
10:24 71.6 °F 64.4 °F 30 in SE 2.5 mph 6.8 mph 77% 0 in 483.00 W/m2 unknown
10:29 71.6 °F 64.4 °F 30 in ESE 3.1 mph 6.8 mph 77% 0 in 494.00 W/m2 unknown
10:34 73.4 °F 66.2 °F 30 in East 3.1 mph 6.8 mph 77% 0 in 503.00 W/m2 unknown
10:39 73.4 °F 64.4 °F 30 in East 4.3 mph 6.2 mph 77% 0 in 519.00 W/m2 unknown
10:44 73.4 °F 64.4 °F 30 in ENE 6.8 mph 9.3 mph 75% 0 in 527.00 W/m2 unknown
10:49 73.4 °F 64.4 °F 30 in East 6.8 mph 9.3 mph 74% 0 in 541.00 W/m2 unknown
10:54 73.4 °F 66.2 °F 30 in East 6.8 mph 8.7 mph 75% 0 in 552.00 W/m2 unknown
10:59 73.4 °F 64.4 °F 30 in ESE 5 mph 8.1 mph 74% 0 in 561.00 W/m2 unknown
11:03 73.4 °F 64.4 °F 30 in ESE 3.7 mph 8.1 mph 73% 0 in 571.00 W/m2 unknown
11:09 75.2 °F 64.4 °F 30 in ENE 5.6 mph 9.3 mph 73% 0 in 584.00 W/m2 unknown
11:14 75.2 °F 66.2 °F 30 in ESE 5 mph 8.7 mph 74% 0 in 594.00 W/m2 unknown
11:19 75.2 °F 66.2 °F 30 in ESE 2.5 mph 6.8 mph 74% 0 in 605.00 W/m2 unknown
11:24 75.2 °F 68 °F 30 in SE 1.9 mph 5 mph 76% 0 in 610.00 W/m2 unknown
11:29 75.2 °F 66.2 °F 30 in ESE 4.3 mph 6.2 mph 72% 0 in 621.00 W/m2 unknown
11:34 75.2 °F 66.2 °F 30 in ENE 6.8 mph 8.7 mph 73% 0 in 624.00 W/m2 unknown
11:39 75.2 °F 66.2 °F 30 in ENE 6.8 mph 9.3 mph 73% 0 in 633.00 W/m2 unknown
11:44 75.2 °F 66.2 °F 30 in ESE 5 mph 8.7 mph 73% 0 in 645.00 W/m2 unknown
11:49 77 °F 66.2 °F 30 in SE 2.5 mph 6.2 mph 73% 0 in 650.00 W/m2 unknown
11:54 77 °F 66.2 °F 30 in ESE 6.2 mph 8.1 mph 71% 0 in 659.00 W/m2 unknown
11:59 77 °F 66.2 °F 30 in East 6.2 mph 8.1 mph 70% 0 in 663.00 W/m2 unknown
12:04 77 °F 66.2 °F 30 in ENE 3.7 mph 8.1 mph 70% 0 in 675.00 W/m2 unknown
12:09 77 °F 68 °F 30 in ENE 3.7 mph 6.8 mph 71% 0 in 679.00 W/m2 unknown
12:14 77 °F 66.2 °F 30 in ENE 5 mph 8.1 mph 70% 0 in 680.00 W/m2 unknown
12:19 77 °F 66.2 °F 30 in East 4.3 mph 8.1 mph 69% 0 in 684.00 W/m2 unknown
12:24 77 °F 66.2 °F 30 in ESE 5.6 mph 6.8 mph 69% 0 in 696.00 W/m2 unknown
12:29 78.8 °F 66.2 °F 30 in SE 5 mph 6.8 mph 70% 0 in 705.00 W/m2 unknown
12:34 78.8 °F 66.2 °F 30 in ESE 4.3 mph 6.8 mph 67% 0 in 708.00 W/m2 unknown
12:39 78.8 °F 66.2 °F 30 in ENE 5 mph 6.8 mph 67% 0 in 708.00 W/m2 unknown
12:44 78.8 °F 66.2 °F 30 in East 6.2 mph 8.1 mph 67% 0 in 710.00 W/m2 unknown
12:49 78.8 °F 66.2 °F 30 in SE 3.1 mph 8.1 mph 67% 0 in 715.00 W/m2 unknown
12:54 78.8 °F 68 °F 30 in East 3.7 mph 6.8 mph 68% 0 in 719.00 W/m2 unknown
12:59 78.8 °F 66.2 °F 30 in ENE 6.8 mph 8.1 mph 66% 0 in 719.00 W/m2 unknown
13:04 78.8 °F 66.2 °F 30 in NE 6.2 mph 8.1 mph 64% 0 in 724.00 W/m2 unknown
13:09 78.8 °F 64.4 °F 30 in NE 6.2 mph 8.1 mph 62% 0 in 733.00 W/m2 unknown
13:14 78.8 °F 66.2 °F 30 in NE 3.1 mph 6.8 mph 63% 0 in 737.00 W/m2 unknown
13:19 78.8 °F 66.2 °F 30 in NE 5 mph 6.8 mph 63% 0 in 738.00 W/m2 unknown
13:24 78.8 °F 66.2 °F 30 in NE 5 mph 6.8 mph 63% 0 in 742.00 W/m2 unknown
13:29 78.8 °F 66.2 °F 30 in East 6.8 mph 9.3 mph 63% 0 in 745.00 W/m2 unknown
13:34 78.8 °F 64.4 °F 30 in ESE 6.2 mph 8.1 mph 62% 0 in 744.00 W/m2 unknown
13:39 80.6 °F 66.2 °F 30 in South 3.7 mph 8.1 mph 62% 0 in 744.00 W/m2 unknown
13:44 80.6 °F 64.4 °F 30 in East 5 mph 6.2 mph 61% 0 in 740.00 W/m2 unknown
13:49 80.6 °F 66.2 °F 30 in NE 6.8 mph 9.3 mph 62% 0 in 737.00 W/m2 unknown
13:54 80.6 °F 66.2 °F 30 in ENE 6.2 mph 8.7 mph 61% 0 in 737.00 W/m2 unknown
13:59 80.6 °F 66.2 °F 30 in ENE 3.7 mph 8.1 mph 63% 0 in 733.00 W/m2 unknown
14:04 80.6 °F 66.2 °F 30 in NE 4.3 mph 8.1 mph 60% 0 in 733.00 W/m2 unknown
14:09 80.6 °F 64.4 °F 30 in NE 5 mph 8.1 mph 59% 0 in 731.00 W/m2 unknown
14:14 80.6 °F 66.2 °F 30 in ENE 6.2 mph 8.1 mph 60% 0 in 719.00 W/m2 unknown
14:19 80.6 °F 64.4 °F 30 in East 6.2 mph 8.1 mph 58% 0 in 708.00 W/m2 unknown
14:24 80.6 °F 64.4 °F 30 in ESE 4.3 mph 6.8 mph 57% 0 in 710.00 W/m2 unknown
14:29 80.6 °F 64.4 °F 30 in ENE 3.1 mph 3.7 mph 60% 0 in 701.00 W/m2 unknown
14:34 80.6 °F 64.4 °F 30 in NE 3.1 mph 3.7 mph 57% 0 in 698.00 W/m2 unknown
14:39 80.6 °F 64.4 °F 30 in West 4.3 mph 5 mph 58% 0 in 698.00 W/m2 unknown
14:44 82.4 °F 66.2 °F 30 in SSW 3.7 mph 5 mph 59% 0 in 691.00 W/m2 unknown
14:49 82.4 °F 64.4 °F 30 in ENE 5 mph 6.8 mph 57% 0 in 689.00 W/m2 unknown
14:54 82.4 °F 64.4 °F 30 in NE 5 mph 6.8 mph 57% 0 in 677.00 W/m2 unknown
14:59 82.4 °F 66.2 °F 30 in ESE 3.7 mph 6.8 mph 58% 0 in 671.00 W/m2 unknown
15:04 82.4 °F 66.2 °F 30 in SE 5.6 mph 6.8 mph 57% 0 in 668.00 W/m2 unknown
15:09 82.4 °F 64.4 °F 30 in SSE 3.1 mph 6.8 mph 57% 0 in 668.00 W/m2 unknown
15:14 82.4 °F 64.4 °F 30 in South 3.1 mph 5 mph 56% 0 in 656.00 W/m2 unknown
15:19 80.6 °F 64.4 °F 29.9 in SE 2.5 mph 3.7 mph 56% 0 in 642.00 W/m2 unknown
15:24 80.6 °F 64.4 °F 29.9 in ENE 3.1 mph 5 mph 57% 0 in 636.00 W/m2 unknown
15:29 82.4 °F 64.4 °F 29.9 in East 3.1 mph 5 mph 56% 0 in 621.00 W/m2 unknown
15:34 82.4 °F 64.4 °F 29.9 in East 5.6 mph 6.8 mph 56% 0 in 610.00 W/m2 unknown
15:39 82.4 °F 64.4 °F 29.9 in ENE 4.3 mph 6.8 mph 56% 0 in 606.00 W/m2 unknown
15:44 82.4 °F 64.4 °F 29.9 in ENE 5 mph 6.8 mph 55% 0 in 601.00 W/m2 unknown
15:49 82.4 °F 64.4 °F 29.9 in East 5 mph 6.8 mph 55% 0 in 591.00 W/m2 unknown
15:54 82.4 °F 64.4 °F 29.9 in ESE 1.9 mph 6.8 mph 57% 0 in 580.00 W/m2 unknown
15:59 82.4 °F 64.4 °F 29.9 in ENE 6.2 mph 9.3 mph 57% 0 in 568.00 W/m2 unknown
16:04 82.4 °F 64.4 °F 29.9 in ENE 4.3 mph 8.7 mph 56% 0 in 557.00 W/m2 unknown
16:09 82.4 °F 64.4 °F 29.9 in East 5 mph 8.1 mph 56% 0 in 545.00 W/m2 unknown
16:14 82.4 °F 64.4 °F 29.9 in East 4.3 mph 8.1 mph 57% 0 in 533.00 W/m2 unknown
16:19 82.4 °F 64.4 °F 29.9 in ENE 5 mph 8.1 mph 57% 0 in 526.00 W/m2 unknown
16:24 82.4 °F 64.4 °F 29.9 in East 5 mph 8.1 mph 55% 0 in 515.00 W/m2 unknown
16:29 82.4 °F 64.4 °F 29.9 in NE 5 mph 8.1 mph 55% 0 in 503.00 W/m2 unknown
16:34 82.4 °F 64.4 °F 29.9 in NE 5 mph 6.8 mph 56% 0 in 494.00 W/m2 unknown
16:39 82.4 °F 64.4 °F 29.9 in NE 5 mph 6.8 mph 56% 0 in 473.00 W/m2 unknown
16:44 82.4 °F 64.4 °F 29.9 in East 3.7 mph 6.2 mph 54% 0 in 461.00 W/m2 unknown
16:49 82.4 °F 64.4 °F 29.9 in ENE 3.1 mph 6.2 mph 56% 0 in 452.00 W/m2 unknown
16:54 82.4 °F 64.4 °F 29.9 in NE 5 mph 6.2 mph 56% 0 in 441.00 W/m2 unknown
16:59 82.4 °F 64.4 °F 29.9 in East 5 mph 6.2 mph 54% 0 in 427.00 W/m2 unknown
17:04 82.4 °F 64.4 °F 29.9 in ENE 3.1 mph 6.2 mph 54% 0 in 413.00 W/m2 unknown
17:09 82.4 °F 64.4 °F 29.9 in ENE 3.7 mph 5 mph 54% 0 in 397.00 W/m2 unknown
17:14 82.4 °F 64.4 °F 29.9 in ENE 3.7 mph 5 mph 54% 0 in 381.00 W/m2 unknown
17:19 82.4 °F 62.6 °F 29.9 in ENE 4.3 mph 6.2 mph 54% 0 in 367.00 W/m2 unknown
17:24 82.4 °F 62.6 °F 29.9 in East 5 mph 6.2 mph 54% 0 in 352.00 W/m2 unknown
17:29 82.4 °F 62.6 °F 29.9 in ESE 4.3 mph 5 mph 54% 0 in 339.00 W/m2 unknown
17:34 80.6 °F 62.6 °F 29.9 in ESE 3.1 mph 5 mph 54% 0 in 322.00 W/m2 unknown
17:39 82.4 °F 64.4 °F 29.9 in East 2.5 mph 5 mph 56% 0 in 304.00 W/m2 unknown
17:44 82.4 °F 64.4 °F 29.9 in ESE 3.1 mph 5 mph 55% 0 in 290.00 W/m2 unknown
17:49 80.6 °F 64.4 °F 29.9 in East 3.7 mph 6.2 mph 55% 0 in 274.00 W/m2 unknown
17:54 80.6 °F 64.4 °F 29.9 in East 3.1 mph 6.2 mph 57% 0 in 258.00 W/m2 unknown
17:59 80.6 °F 64.4 °F 29.9 in ESE 2.5 mph 3.7 mph 57% 0 in 246.00 W/m2 unknown
18:04 80.6 °F 64.4 °F 29.9 in East 2.5 mph 3.7 mph 57% 0 in 230.00 W/m2 unknown
18:09 80.6 °F 64.4 °F 29.9 in ENE 1.9 mph 3.7 mph 58% 0 in 218.00 W/m2 unknown
18:14 80.6 °F 64.4 °F 29.9 in ENE 1.9 mph 3.7 mph 58% 0 in 199.00 W/m2 unknown
18:19 80.6 °F 64.4 °F 29.9 in ENE 3.1 mph 5 mph 58% 0 in 46.00 W/m2 unknown
18:24 80.6 °F 64.4 °F 29.9 in ENE 3.1 mph 5 mph 59% 0 in 132.00 W/m2 unknown
18:29 80.6 °F 64.4 °F 29.9 in ENE 2.5 mph 5 mph 59% 0 in 146.00 W/m2 unknown
18:34 80.6 °F 64.4 °F 29.9 in ENE 2.5 mph 3.7 mph 59% 0 in 137.00 W/m2 unknown
18:39 80.6 °F 64.4 °F 29.9 in ENE 2.5 mph 5 mph 60% 0 in 118.00 W/m2 unknown
18:44 78.8 °F 66.2 °F 29.9 in ENE 2.5 mph 5 mph 63% 0 in 100.00 W/m2 unknown
18:49 78.8 °F 66.2 °F 29.9 in ENE 2.5 mph 3.7 mph 63% 0 in 84.00 W/m2 unknown
18:54 78.8 °F 64.4 °F 29.9 in ENE 1.9 mph 3.7 mph 63% 0 in 70.00 W/m2 unknown
18:59 78.8 °F 64.4 °F 29.9 in ENE 1.9 mph 3.7 mph 63% 0 in 60.00 W/m2 unknown
19:04 78.8 °F 66.2 °F 29.9 in ENE 1.9 mph 3.7 mph 65% 0 in 42.00 W/m2 unknown
19:09 78.8 °F 66.2 °F 29.9 in ENE 1.9 mph 3.7 mph 66% 0 in 32.00 W/m2 unknown
19:14 77 °F 66.2 °F 29.9 in ENE 2.5 mph 3.7 mph 67% 0 in 25.00 W/m2 unknown
19:19 77 °F 66.2 °F 29.9 in ENE 1.9 mph 3.7 mph 67% 0 in 16.00 W/m2 unknown
19:24 77 °F 64.4 °F 29.9 in ENE 1.9 mph 3.7 mph 68% 0 in 11.00 W/m2 unknown
19:29 75.2 °F 64.4 °F 29.9 in ENE 1.9 mph 3.7 mph 68% 0 in 7.00 W/m2 unknown
19:34 75.2 °F 64.4 °F 29.9 in ENE 1.9 mph 3.7 mph 69% 0 in 5.00 W/m2 unknown
19:39 75.2 °F 64.4 °F 29.9 in East 1.9 mph 3.7 mph 70% 0 in 0.00 W/m2 unknown
19:44 75.2 °F 64.4 °F 29.9 in East 2.5 mph 3.7 mph 71% 0 in 0.00 W/m2 unknown
19:49 73.4 °F 64.4 °F 29.9 in East 1.9 mph 3.7 mph 74% 0 in 0.00 W/m2 unknown
19:54 73.4 °F 64.4 °F 29.9 in ENE 2.5 mph 3.7 mph 73% 0 in 0.00 W/m2 unknown
19:59 73.4 °F 64.4 °F 29.9 in East 2.5 mph 3.7 mph 72% 0 in 0.00 W/m2 unknown
20:04 73.4 °F 64.4 °F 29.9 in ENE 2.5 mph 3.7 mph 72% 0 in 0.00 W/m2 unknown
20:09 73.4 °F 64.4 °F 29.9 in ENE 1.9 mph 2.5 mph 72% 0 in 0.00 W/m2 unknown
20:14 73.4 °F 64.4 °F 29.9 in ENE 1.9 mph 2.5 mph 71% 0 in 0.00 W/m2 unknown
20:19 73.4 °F 64.4 °F 29.9 in East 1.9 mph 2.5 mph 72% 0 in 0.00 W/m2 unknown
20:24 73.4 °F 64.4 °F 29.9 in East 1.9 mph 2.5 mph 73% 0 in 0.00 W/m2 unknown
20:29 73.4 °F 62.6 °F 29.9 in East 1.9 mph 3.7 mph 73% 0 in 0.00 W/m2 unknown
20:34 71.6 °F 64.4 °F 29.9 in East 1.9 mph 3.7 mph 74% 0 in 0.00 W/m2 unknown
20:39 71.6 °F 64.4 °F 29.9 in East 3.1 mph 3.7 mph 75% 0 in 0.00 W/m2 unknown
20:44 71.6 °F 62.6 °F 29.9 in ENE 2.5 mph 3.7 mph 74% 0 in 0.00 W/m2 unknown
20:49 71.6 °F 62.6 °F 29.9 in East 2.5 mph 3.7 mph 74% 0 in 0.00 W/m2 unknown
20:54 71.6 °F 62.6 °F 29.9 in East 1.9 mph 3.7 mph 73% 0 in 0.00 W/m2 unknown
20:59 71.6 °F 62.6 °F 29.9 in ENE 3.1 mph 3.7 mph 73% 0 in 0.00 W/m2 unknown
21:04 71.6 °F 62.6 °F 29.9 in ENE 2.5 mph 3.7 mph 73% 0 in 0.00 W/m2 unknown
21:09 71.6 °F 62.6 °F 29.9 in ENE 2.5 mph 3.7 mph 72% 0 in 0.00 W/m2 unknown
21:14 71.6 °F 62.6 °F 29.9 in ENE 2.5 mph 3.7 mph 73% 0 in 0.00 W/m2 unknown
21:19 71.6 °F 62.6 °F 29.9 in ENE 1.9 mph 3.7 mph 73% 0 in 0.00 W/m2 unknown
21:24 71.6 °F 62.6 °F 29.9 in ENE 2.5 mph 3.7 mph 73% 0 in 0.00 W/m2 unknown
21:29 71.6 °F 62.6 °F 29.9 in ENE 3.1 mph 3.7 mph 73% 0 in 0.00 W/m2 unknown
21:34 71.6 °F 62.6 °F 29.9 in ENE 3.1 mph 3.7 mph 73% 0 in 0.00 W/m2 unknown
21:39 71.6 °F 62.6 °F 29.9 in ENE 2.5 mph 3.7 mph 72% 0 in 0.00 W/m2 unknown
21:44 71.6 °F 62.6 °F 29.9 in ENE 2.5 mph 3.7 mph 72% 0 in 0.00 W/m2 unknown
21:49 71.6 °F 62.6 °F 29.9 in ENE 2.5 mph 3.7 mph 72% 0 in 0.00 W/m2 unknown
21:54 71.6 °F 62.6 °F 29.9 in ENE 2.5 mph 3.7 mph 72% 0 in 0.00 W/m2 unknown
21:59 71.6 °F 60.8 °F 29.9 in ENE 2.5 mph 3.7 mph 72% 0 in 0.00 W/m2 unknown
22:04 71.6 °F 62.6 °F 29.9 in ENE 1.9 mph 3.7 mph 73% 0 in 0.00 W/m2 unknown
22:09 71.6 °F 62.6 °F 29.9 in ENE 1.9 mph 3.1 mph 73% 0 in 0.00 W/m2 unknown
22:14 71.6 °F 62.6 °F 29.9 in ENE 2.5 mph 3.7 mph 73% 0 in 0.00 W/m2 unknown
22:19 71.6 °F 62.6 °F 29.9 in ENE 2.5 mph 3.7 mph 74% 0 in 0.00 W/m2 unknown
22:24 69.8 °F 62.6 °F 29.9 in ENE 1.9 mph 2.5 mph 76% 0 in 0.00 W/m2 unknown
22:29 69.8 °F 62.6 °F 29.9 in ENE 2.5 mph 3.7 mph 77% 0 in 0.00 W/m2 unknown
22:34 69.8 °F 62.6 °F 29.9 in ENE 2.5 mph 3.7 mph 77% 0 in 0.00 W/m2 unknown
22:39 69.8 °F 62.6 °F 29.9 in ENE 2.5 mph 3.7 mph 77% 0 in 0.00 W/m2 unknown
22:44 69.8 °F 60.8 °F 29.9 in ENE 3.1 mph 3.7 mph 74% 0 in 0.00 W/m2 unknown
22:49 69.8 °F 60.8 °F 29.9 in ENE 3.7 mph 6.8 mph 75% 0 in 0.00 W/m2 unknown
22:54 69.8 °F 60.8 °F 29.9 in ENE 3.7 mph 6.8 mph 75% 0 in 0.00 W/m2 unknown
22:59 69.8 °F 60.8 °F 29.9 in ENE 3.1 mph 5 mph 75% 0 in 0.00 W/m2 unknown
23:04 69.8 °F 60.8 °F 29.9 in ENE 4.3 mph 5 mph 76% 0 in 0.00 W/m2 unknown
23:09 69.8 °F 60.8 °F 29.9 in ENE 3.7 mph 5 mph 76% 0 in 0.00 W/m2 unknown
23:14 69.8 °F 60.8 °F 29.9 in ENE 3.1 mph 5 mph 77% 0 in 0.00 W/m2 unknown
23:19 69.8 °F 60.8 °F 29.9 in ENE 2.5 mph 3.7 mph 78% 0 in 0.00 W/m2 unknown
23:24 68 °F 60.8 °F 29.9 in ENE 2.5 mph 3.7 mph 78% 0 in 0.00 W/m2 unknown
23:29 68 °F 60.8 °F 29.9 in East 3.1 mph 5 mph 78% 0 in 0.00 W/m2 unknown
23:34 68 °F 60.8 °F 29.9 in East 3.1 mph 5 mph 78% 0 in 0.00 W/m2 unknown
23:39 68 °F 60.8 °F 29.9 in East 2.5 mph 5 mph 78% 0 in 0.00 W/m2 unknown
23:44 68 °F 60.8 °F 29.9 in East 1.9 mph 3.7 mph 78% 0 in 0.00 W/m2 unknown
23:49 68 °F 60.8 °F 29.9 in East 1.9 mph 3.1 mph 78% 0 in 0.00 W/m2 unknown
23:53 68 °F 60.8 °F 29.9 in East 1.9 mph 3.7 mph 78% 0 in 0.00 W/m2 unknown
23:59 68 °F 60.8 °F 29.9 in ENE 1.9 mph 3.7 mph 79% 0 in 0.00 W/m2 unknown
Stazione Meteorologica MeteoMincio Rivalta s/M (MN)
Con i complimenti di Weather Underground - 4 mb



METEO PILLOLE
La più intensa nevicata in 24 ore
Silver Lake - Colorado
Tra il 14 e il 15 aprile 1921 caddero 193 cm di neve
C'è anche un altro dato, ma non è ufficiale, a Roccacaramanico (1050m) in Abruzzo - Italia, Il 17 dicembre 1961 caddero 340 cm di neve.
Share

Non seguire questo link o sarai bannato dal sito!